Flag for Germany Weather past 2 weeks in Radolfzell am Bodensee, Baden-Württemberg, Germany

Now
68 °F

Partly sunny.


Feels Like: 68 °F
Forecast: 50 / 75 °F
Wind: 2 mph from Southeast

Location: Konstanz

Current Time: May 4, 2015 at 5:18:10 PM

Latest Report: May 4, 2015 at 5:00 PM


Visibility: 37 mi

Pressure: 29.82 "Hg

Humidity: 67%

Dew point: 56 °F

Location of Radolfzell am BodenseeLocation

Historic Weather in Radolfzell am Bodensee — Graph

°F

Radolfzell am Bodensee temperature yesterday

Maximum temperature yesterday: 62 °F (at 6:00 PM)
Minimum temperature yesterday: 51 °F (at 4:00 AM)
Average temperature yesterday: 56 °F

Past Weeks' High & Low Weather Summary

 TemperatureHumidityPressure
High74 °F (Apr 22, 5:00 PM)100% (May 3, 2:00 AM)30.38 "Hg (May 3, 2:00 AM)
Low38 °F (Apr 29, 4:00 AM)18% (Apr 22, 7:00 PM)29.41 "Hg (Apr 27, 6:00 PM)
Average55 °F70%29.96 "Hg
* Reported Apr 19 4:00 PM — May 4 4:00 PM, Radolfzell am Bodensee, Weather by CustomWeather, © 2015

Note: Actual official high and low records may vary slightly from our data, if they occured in-between our weather recording intervals... More about our weather records

Advertising

Radolfzell am Bodensee weather history for previous 24 hours

 ConditionsComfort  
Time TempWeatherWind HumidityBarometerVisibility
4:00 PM
Mon, May 4
65 °FOvercast.2 mph80%29.84 "Hg28 mi
3:00 PM63 °FLight rain. Overcast.2 mph83%29.87 "Hg25 mi
2:00 PM64 °FLow clouds.2 mph86%29.88 "Hg28 mi
1:00 PM63 °FLight rain. Overcast.1 mph87%29.88 "Hg19 mi
12:00 PM62 °FLight rain. Overcast.1 mph89%29.88 "Hg19 mi
11:00 AM61 °FLight rain. Overcast.2 mph92%29.88 "Hg17 mi
10:00 AM61 °FLight rain. Overcast.1 mph89%29.89 "Hg31 mi
9:00 AM59 °FOvercast.1 mph93%29.90 "Hg31 mi
8:00 AM57 °FLight rain. Overcast.1 mph98%29.90 "Hg31 mi
7:00 AM58 °FOvercast.2 mph97%29.88 "Hg31 mi
6:00 AM58 °FOvercast.1 mph95%29.88 "Hg37 mi
5:00 AM60 °FOvercast.2 mph90%29.86 "Hg43 mi
4:00 AM59 °FOvercast.2 mph95%29.86 "Hg43 mi
3:00 AM59 °FLight rain. Passing clouds.2 mph94%29.86 "Hg16 mi
2:00 AM60 °FLight rain. Passing clouds.3 mph94%29.85 "Hg34 mi
1:00 AM60 °FOvercast.3 mph96%29.83 "Hg43 mi
12:00 AM58 °FLight rain. Passing clouds.1 mph99%29.83 "Hg6 mi
11:00 PM
Sun, May 3
59 °FOvercast.2 mph95%29.81 "Hg28 mi
10:00 PM59 °FOvercast.1 mph97%29.80 "Hg17 mi
9:00 PM60 °FOvercast.1 mph95%29.78 "Hg37 mi
8:00 PM61 °FOvercast.1 mph95%29.76 "Hg37 mi
7:00 PM60 °FOvercast.1 mph91%29.75 "Hg22 mi
6:00 PM62 °FOvercast.2 mph88%29.75 "Hg22 mi
5:00 PM60 °FOvercast.3 mph91%29.76 "Hg17 mi
Weather by CustomWeather, © 2015

See weather overviewHow to use our weather pages